�������l�o���
Date,Time,MP-1(��Sv/h),MP-2(��Sv/h),MP-3(��Sv/h),MP-4(��Sv/h),MP-5(��Sv/h),MP-6(��Sv/h),MP-7(��Sv/h),����,����(m/s),���J
2014/12/15,00:00,0.606,0.388,0.654,0.587,0.573,0.263,0.237,�k�k��,5.1,��
2014/12/15,00:10,0.606,0.387,0.651,0.584,0.574,0.263,0.237,�k,5.3,��
2014/12/15,00:20,0.606,0.386,0.652,0.585,0.576,0.262,0.236,�k�k��,5.4,��
2014/12/15,00:30,0.606,0.388,0.652,0.585,0.574,0.263,0.236,�k,4.6,��
2014/12/15,00:40,0.606,0.387,0.652,0.586,0.574,0.263,0.236,�k,4.5,��
2014/12/15,00:50,0.605,0.387,0.653,0.583,0.574,0.262,0.236,�k,5.0,��
2014/12/15,01:00,0.603,0.387,0.652,0.583,0.575,0.262,0.237,�k,5.3,��
2014/12/15,01:10,0.606,0.387,0.653,0.585,0.575,0.263,0.236,�k,4.9,��
2014/12/15,01:20,0.605,0.386,0.652,0.584,0.577,0.262,0.236,�k,4.7,��
2014/12/15,01:30,0.606,0.387,0.652,0.585,0.573,0.262,0.235,�k,5.3,��
2014/12/15,01:40,0.606,0.386,0.651,0.585,0.576,0.262,0.236,�k,4.5,��
2014/12/15,01:50,0.604,0.387,0.651,0.584,0.576,0.263,0.236,�k,4.4,��
2014/12/15,02:00,0.605,0.387,0.652,0.583,0.575,0.262,0.236,�k,1.7,��
2014/12/15,02:10,0.605,0.387,0.652,0.586,0.574,0.261,0.236,�k,2.2,��
2014/12/15,02:20,0.604,0.387,0.650,0.585,0.574,0.262,0.237,�k,2.7,��
2014/12/15,02:30,0.606,0.386,0.654,0.585,0.574,0.262,0.236,�k,3.9,��
2014/12/15,02:40,0.605,0.387,0.653,0.585,0.575,0.263,0.237,�k,2.2,��
2014/12/15,02:50,0.607,0.388,0.653,0.583,0.573,0.263,0.237,�k�k��,1.7,��
2014/12/15,03:00,0.605,0.387,0.653,0.585,0.573,0.262,0.236,�k,1.7,��
2014/12/15,03:10,0.605,0.387,0.650,0.584,0.573,0.263,0.236,�k,2.0,��
2014/12/15,03:20,0.604,0.388,0.653,0.586,0.574,0.263,0.237,�k,2.3,��
2014/12/15,03:30,0.605,0.386,0.653,0.586,0.574,0.262,0.237,�k,2.2,��
2014/12/15,03:40,0.605,0.388,0.652,0.585,0.573,0.264,0.236,�k,1.7,��
2014/12/15,03:50,0.606,0.387,0.652,0.584,0.575,0.261,0.236,�k�k��,0.9,��
2014/12/15,04:00,0.606,0.387,0.651,0.585,0.573,0.263,0.236,�k�k��,1.4,��
2014/12/15,04:10,0.605,0.387,0.652,0.584,0.576,0.263,0.236,�k�k��,1.5,��
2014/12/15,04:20,0.604,0.386,0.652,0.584,0.574,0.262,0.235,�k,1.4,��
2014/12/15,04:30,0.605,0.386,0.652,0.584,0.574,0.263,0.236,�k,0.6,��
2014/12/15,04:40,0.603,0.386,0.651,0.586,0.574,0.262,0.237,-,CALM,��
2014/12/15,04:50,0.604,0.387,0.653,0.586,0.575,0.262,0.235,�k,0.6,��
2014/12/15,05:00,0.603,0.387,0.652,0.586,0.574,0.262,0.237,��쐼,0.7,��
2014/12/15,05:10,0.604,0.387,0.652,0.584,0.573,0.261,0.236,-,CALM,��
2014/12/15,05:20,0.605,0.387,0.651,0.583,0.575,0.263,0.236,-,CALM,��
2014/12/15,05:30,0.604,0.387,0.653,0.584,0.575,0.262,0.236,-,CALM,��
2014/12/15,05:40,0.604,0.387,0.653,0.585,0.574,0.262,0.235,��,1.7,��
2014/12/15,05:50,0.606,0.386,0.652,0.587,0.574,0.262,0.237,��,0.6,��
2014/12/15,06:00,0.604,0.386,0.652,0.585,0.574,0.261,0.236,��,1.3,��
2014/12/15,06:10,0.605,0.387,0.650,0.584,0.574,0.263,0.235,��,2.5,��
2014/12/15,06:20,0.605,0.386,0.651,0.584,0.574,0.262,0.236,��,3.2,��
2014/12/15,06:30,0.605,0.387,0.651,0.584,0.572,0.262,0.237,��,2.7,��
2014/12/15,06:40,0.603,0.386,0.651,0.583,0.572,0.263,0.235,��,2.3,��
2014/12/15,06:50,0.604,0.386,0.652,0.584,0.574,0.262,0.237,��,1.4,��
2014/12/15,07:00,0.603,0.386,0.650,0.584,0.573,0.262,0.236,��,0.8,��
2014/12/15,07:10,0.605,0.387,0.651,0.586,0.574,0.262,0.237,�k,0.8,��
2014/12/15,07:20,0.605,0.386,0.650,0.584,0.574,0.261,0.235,�k��,3.3,��
2014/12/15,07:30,0.603,0.386,0.651,0.584,0.573,0.261,0.236,�k�k��,3.0,��
2014/12/15,07:40,0.603,0.388,0.652,0.584,0.575,0.263,0.236,�k,4.2,��
2014/12/15,07:50,0.604,0.387,0.653,0.585,0.573,0.263,0.236,�k,3.6,��
2014/12/15,08:00,0.605,0.386,0.652,0.584,0.574,0.262,0.237,�k�k��,3.9,��
2014/12/15,08:10,0.605,0.386,0.652,0.585,0.573,0.262,0.234,�k,3.3,��
2014/12/15,08:20,0.605,0.387,0.651,0.584,0.574,0.261,0.235,�k,2.5,��
2014/12/15,08:30,0.604,0.386,0.653,0.584,0.574,0.262,0.236,�k,2.8,��
2014/12/15,08:40,0.605,0.387,0.653,0.586,0.575,0.261,0.235,�k�k��,2.5,��
2014/12/15,08:50,0.605,0.387,0.654,0.586,0.573,0.260,0.235,�k�k��,3.1,��
2014/12/15,09:00,0.605,0.386,0.653,0.586,0.574,0.260,0.237,�k��,3.6,��
2014/12/15,09:10,0.605,0.388,0.651,0.587,0.575,0.261,0.235,�k��,5.2,��
2014/12/15,09:20,0.605,0.387,0.653,0.587,0.575,0.262,0.234,�k��,7.8,��
2014/12/15,09:30,0.606,0.388,0.652,0.586,0.575,0.261,0.236,�k�k��,5.9,��
2014/12/15,09:40,0.606,0.387,0.654,0.587,0.574,0.262,0.237,�k��,4.8,��
2014/12/15,09:50,0.607,0.387,0.652,0.587,0.576,0.262,0.236,�k��,3.8,��
2014/12/15,10:00,0.606,0.389,0.652,0.586,0.574,0.262,0.235,�k�k��,8.9,��
2014/12/15,10:10,0.603,0.389,0.652,0.586,0.574,0.262,0.236,�k��,7.7,��
2014/12/15,10:20,0.606,0.389,0.654,0.588,0.574,0.262,0.235,�k��,4.7,��
2014/12/15,10:30,0.606,0.388,0.653,0.585,0.576,0.262,0.235,�k�k��,4.2,��
2014/12/15,10:40,0.606,0.388,0.654,0.588,0.573,0.263,0.236,���k��,4.7,��
2014/12/15,10:50,0.606,0.388,0.652,0.586,0.575,0.261,0.235,�k,7.4,��
2014/12/15,11:00,0.606,0.389,0.653,0.587,0.574,0.262,0.236,�k�k��,9.8,��
2014/12/15,11:10,0.605,0.387,0.653,0.586,0.575,0.262,0.237,�k�k��,10.2,��
2014/12/15,11:20,0.605,0.389,0.654,0.586,0.577,0.262,0.236,�k�k��,9.2,��
2014/12/15,11:30,0.606,0.387,0.654,0.587,0.574,0.263,0.236,�k��,8.2,��
2014/12/15,11:40,0.607,0.388,0.655,0.587,0.574,0.263,0.236,�k��,10.3,��
2014/12/15,11:50,0.608,0.389,0.652,0.587,0.575,0.263,0.235,�k��,10.0,��
2014/12/15,12:00,0.607,0.389,0.655,0.587,0.574,0.263,0.237,���k��,9.9,��
2014/12/15,12:10,0.608,0.389,0.653,0.587,0.574,0.262,0.237,�k��,10.9,��
2014/12/15,12:20,0.605,0.390,0.655,0.586,0.576,0.264,0.236,�k��,9.7,��
2014/12/15,12:30,0.606,0.388,0.654,0.588,0.575,0.262,0.235,�k�k��,9.2,��
2014/12/15,12:40,0.606,0.391,0.653,0.586,0.576,0.262,0.236,�k�k��,9.2,��
2014/12/15,12:50,0.608,0.388,0.652,0.587,0.575,0.263,0.236,�k�k��,10.2,��
2014/12/15,13:00,0.607,0.390,0.652,0.587,0.574,0.263,0.236,�k,7.0,��
2014/12/15,13:10,0.607,0.389,0.653,0.588,0.574,0.263,0.235,�k�k��,7.0,��
2014/12/15,13:20,0.609,0.389,0.652,0.586,0.576,0.262,0.236,�k�k��,9.4,��
2014/12/15,13:30,0.605,0.388,0.652,0.586,0.574,0.263,0.235,�k�k��,7.6,��
2014/12/15,13:40,0.609,0.388,0.655,0.586,0.574,0.262,0.236,�k,9.2,��
2014/12/15,13:50,0.606,0.389,0.653,0.587,0.575,0.262,0.235,�k,7.6,��
2014/12/15,14:00,0.607,0.388,0.651,0.586,0.574,0.262,0.236,�k,9.5,��
2014/12/15,14:10,0.608,0.388,0.653,0.586,0.573,0.263,0.236,�k,6.9,��
2014/12/15,14:20,0.607,0.389,0.653,0.583,0.574,0.264,0.238,�k,7.4,��
2014/12/15,14:30,0.608,0.388,0.653,0.584,0.573,0.263,0.236,�k�k��,9.2,��
2014/12/15,14:40,0.608,0.389,0.655,0.584,0.575,0.261,0.236,�k�k��,8.1,��
2014/12/15,14:50,0.606,0.389,0.654,0.586,0.575,0.263,0.236,�k,6.7,��
2014/12/15,15:00,0.606,0.388,0.653,0.585,0.575,0.262,0.237,�k,3.4,��
2014/12/15,15:10,0.605,0.388,0.654,0.585,0.574,0.262,0.238,�k�k��,2.8,��
2014/12/15,15:20,0.608,0.387,0.651,0.584,0.572,0.262,0.236,�k,5.5,��
2014/12/15,15:30,0.605,0.388,0.652,0.585,0.575,0.262,0.235,�k,4.2,��
2014/12/15,15:40,0.608,0.388,0.651,0.586,0.577,0.262,0.237,�k,5.6,��
2014/12/15,15:50,0.607,0.387,0.653,0.586,0.574,0.262,0.237,�k,3.9,��
2014/12/15,16:00,0.609,0.387,0.654,0.585,0.575,0.262,0.235,�k,1.7,��
2014/12/15,16:10,0.607,0.388,0.654,0.586,0.574,0.262,0.237,�k�k��,2.6,��
2014/12/15,16:20,0.607,0.387,0.653,0.583,0.574,0.262,0.236,�k,1.2,��
2014/12/15,16:30,0.607,0.387,0.653,0.583,0.572,0.262,0.237,�k,0.9,��
2014/12/15,16:40,0.605,0.387,0.652,0.584,0.574,0.262,0.237,�k,1.0,��
2014/12/15,16:50,0.608,0.387,0.653,0.585,0.575,0.263,0.236,�k,1.1,��
2014/12/15,17:00,0.606,0.385,0.652,0.582,0.573,0.263,0.237,�k�k��,1.2,��
2014/12/15,17:10,0.606,0.388,0.652,0.583,0.574,0.263,0.236,�k�k��,1.1,��
2014/12/15,17:20,0.606,0.388,0.650,0.584,0.574,0.263,0.237,�k�k��,1.1,��
2014/12/15,17:30,0.606,0.387,0.652,0.583,0.573,0.262,0.236,�k,0.6,��
2014/12/15,17:40,0.608,0.386,0.650,0.584,0.573,0.263,0.237,-,CALM,��
2014/12/15,17:50,0.605,0.387,0.652,0.584,0.574,0.262,0.236,-,CALM,��
2014/12/15,18:00,0.606,0.386,0.653,0.584,0.574,0.263,0.235,�k,1.4,��
2014/12/15,18:10,0.606,0.387,0.652,0.584,0.573,0.262,0.236,�k,2.6,��
2014/12/15,18:20,0.606,0.388,0.652,0.585,0.572,0.262,0.236,�k,2.9,��
2014/12/15,18:30,0.607,0.387,0.651,0.584,0.573,0.263,0.237,�k,2.5,��
2014/12/15,18:40,0.607,0.387,0.652,0.584,0.575,0.262,0.237,�k,3.8,��
2014/12/15,18:50,0.607,0.387,0.654,0.582,0.574,0.263,0.236,�k,1.8,��
2014/12/15,19:00,0.606,0.388,0.652,0.585,0.575,0.263,0.236,�k,2.5,��
2014/12/15,19:10,0.604,0.386,0.652,0.585,0.573,0.263,0.236,�k,2.6,��
2014/12/15,19:20,0.607,0.388,0.652,0.584,0.573,0.263,0.235,�k,2.1,��
2014/12/15,19:30,0.607,0.387,0.652,0.585,0.574,0.262,0.236,�k�k��,2.6,��
2014/12/15,19:40,0.605,0.387,0.652,0.584,0.574,0.262,0.236,�k�k��,2.9,��
2014/12/15,19:50,0.606,0.388,0.652,0.585,0.574,0.262,0.237,�k,2.8,��
2014/12/15,20:00,0.606,0.387,0.654,0.584,0.574,0.263,0.236,�k�k��,1.9,��
2014/12/15,20:10,0.606,0.387,0.652,0.583,0.574,0.263,0.236,�k�k��,0.6,��
2014/12/15,20:20,0.606,0.387,0.652,0.585,0.573,0.261,0.236,-,CALM,��
2014/12/15,20:30,0.607,0.387,0.651,0.583,0.573,0.263,0.236,-,CALM,��
2014/12/15,20:40,0.607,0.388,0.651,0.585,0.575,0.263,0.236,-,CALM,��
2014/12/15,20:50,0.607,0.387,0.652,0.585,0.572,0.263,0.237,�k��,0.8,��
2014/12/15,21:00,0.606,0.388,0.653,0.584,0.574,0.264,0.236,�k��,1.0,��
2014/12/15,21:10,0.607,0.387,0.652,0.585,0.576,0.263,0.236,�k�k��,1.1,��
2014/12/15,21:20,0.608,0.387,0.652,0.585,0.574,0.263,0.236,�k,1.0,��
2014/12/15,21:30,0.608,0.388,0.654,0.586,0.573,0.263,0.236,�k,0.8,��
2014/12/15,21:40,0.608,0.387,0.653,0.585,0.574,0.264,0.235,-,CALM,��
2014/12/15,21:50,0.607,0.387,0.652,0.584,0.574,0.263,0.237,-,CALM,��
2014/12/15,22:00,0.606,0.388,0.653,0.586,0.575,0.264,0.236,-,CALM,��
2014/12/15,22:10,0.605,0.389,0.652,0.584,0.575,0.262,0.236,-,CALM,��
2014/12/15,22:20,0.606,0.388,0.651,0.585,0.574,0.263,0.236,-,CALM,��
2014/12/15,22:30,0.606,0.388,0.653,0.585,0.572,0.263,0.236,�쐼,0.6,��
2014/12/15,22:40,0.607,0.386,0.653,0.585,0.573,0.263,0.237,-,CALM,��
2014/12/15,22:50,0.607,0.389,0.654,0.584,0.574,0.262,0.237,��,1.1,��
2014/12/15,23:00,0.605,0.388,0.651,0.586,0.573,0.262,0.236,��쐼,1.3,��
2014/12/15,23:10,0.605,0.388,0.651,0.583,0.573,0.262,0.236,��쐼,2.4,��
2014/12/15,23:20,0.607,0.386,0.652,0.585,0.577,0.262,0.237,��,2.8,��
2014/12/15,23:30,0.608,0.388,0.652,0.585,0.574,0.263,0.236,��,2.5,��
2014/12/15,23:40,0.605,0.387,0.651,0.585,0.575,0.263,0.237,��,2.5,��
2014/12/15,23:50,0.606,0.386,0.653,0.585,0.574,0.263,0.236,��쓌,0.9,��
